This demonstration page uses our WeatherBlox Daily Observations layout. Learn more.

Left ArrowRight Arrow

Hourly Observations for March 13, 2020

Temp ( °F °C ) Dew Point ( °F °C ) Humidity (%) Winds ( mph kmh ) Pressure ( in mb ) Visibility ( mi km ) Precip ( " mm )
12:56 am 00:56 Clear 32 0 22 -5.6 66 66 WNW 5 7 30.21 1023 10 16 0.00 0.00
1:56 am 01:56 Clear 29 -1.7 21 -6.1 72 72 NNW 9 15 30.21 1023 10 16 0.00 0.00
2:56 am 02:56 Clear 30 -1.1 21 -6.1 69 69 NNW 6 9 30.22 1024 10 16 0.00 0.00
3:56 am 03:56 Mostly Cloudy 29 -1.7 21 -6.1 72 72 N 9 15 30.24 1024 10 16 0.00 0.00
4:56 am 04:56 Cloudy 31 -0.6 22 -5.6 69 69 Calm 30.27 1025 10 16 0.00 0.00
5:56 am 05:56 Cloudy 31 -0.6 23 -5 72 72 NNE 5 7 30.26 1025 10 16 0.00 0.00
6:56 am 06:56 Cloudy 31 -0.6 25 -3.9 79 79 NE 6 9 30.28 1025 10 16 0.00 0.00
7:56 am 07:56 Cloudy 32 0 24 -4.4 73 73 Calm 30.31 1027 10 16 0.00 0.00
8:56 am 08:56 Cloudy 33 0.6 24 -4.4 70 70 Calm 30.35 1028 10 16 0.00 0.00
9:56 am 09:56 Cloudy 34 1.1 26 -3.3 73 73 SSE 5 7 30.38 1029 10 16 0.00 0.00
10:56 am 10:56 Cloudy 36 2.2 25 -3.9 64 64 undefined N/A 30.38 1029 10 16 0.00 0.00
11:56 am 11:56 Cloudy 39 3.9 24 -4.4 55 55 SSE 14 22 30.39 1029 10 16 0.00 0.00
12:56 pm 12:56 Mostly Cloudy 40 4.4 22 -5.6 49 49 SSE 13 20 30.38 1029 10 16 0.00 0.00
1:56 pm 13:56 Cloudy 40 4.4 24 -4.4 53 53 SSE 15 24 30.38 1029 10 16 0.00 0.00
2:56 pm 14:56 Cloudy with Light Rain 36 2.2 28 -2.2 73 73 SSE 12 19 30.38 1029 10 16 0.00 0.00
3:17 pm 15:17 Cloudy with Light Snow 34 1 30 -1 87 87 SSE 10 17 30.40 1030 3 5 0.00 0.00
3:24 pm 15:24 Cloudy with Light Snow 34 1 30 -1 87 87 SSE 12 19 30.40 1030 2 3 0.00 0.00
3:38 pm 15:38 Cloudy with Light Snow 34 1 30 -1 87 87 SE 9 15 30.40 1030 1 2 0.00 0.00
3:47 pm 15:47 Cloudy with Light Snow 34 1 30 -1 87 87 SSE 12 19 30.41 1030 1 2 0.00 0.00
3:56 pm 15:56 Cloudy with Light Snow 33 0.6 30 -1.1 89 89 SE 10 17 30.39 1029 1 1 0.01 0.25
4:14 pm 16:14 Cloudy with Light Snow 32 0 30 -1 93 93 SE 7 11 30.43 1031 1 2 0.00 0.00
4:17 pm 16:17 Cloudy with Light Snow 32 0 30 -1 93 93 SE 7 11 30.43 1031 1 1 0.00 0.00
4:25 pm 16:25 Cloudy with Light Snow 32 0 30 -1 93 93 SE 7 11 30.42 1030 1 2 0.00 0.00
4:35 pm 16:35 Cloudy with Light Snow 32 0 30 -1 93 93 ESE 9 15 30.40 1030 1 2 0.02 0.51
4:53 pm 16:53 Cloudy with Light Snow 32 0 30 -1 93 93 ESE 13 20 30.39 1029 2 2 0.02 0.51
4:56 pm 16:56 Cloudy with Light Snow 32 0 30 -1.1 92 92 ESE 12 19 30.35 1028 2 2 0.03 0.76
5:15 pm 17:15 Cloudy with Light Snow 32 0 30 -1 93 93 ESE 13 20 30.39 1029 1 2 0.00 0.00
5:26 pm 17:26 Cloudy with Light Snow 32 0 30 -1 93 93 ESE 13 20 30.39 1029 2 3 0.01 0.25
5:33 pm 17:33 Cloudy with Light Snow 32 0 30 -1 93 93 ESE 13 20 30.39 1029 3 4 0.01 0.25
5:40 pm 17:40 Cloudy with Light Snow 32 0 30 -1 93 93 ESE 12 19 30.39 1029 3 5 0.01 0.25
5:47 pm 17:47 Cloudy with Light Snow 32 0 30 -1 93 93 ESE 12 19 30.39 1029 2 3 0.01 0.25
5:56 pm 17:56 Cloudy with Light Snow 32 0 30 -1.1 92 92 ESE 13 20 30.36 1028 2 2 0.02 0.51
6:07 pm 18:07 Cloudy with Light Snow 32 0 30 -1 93 93 E 12 19 30.38 1029 1 1 0.00 0.00
6:20 pm 18:20 Cloudy with Snow 32 0 30 -1 93 93 ESE 16 26 30.37 1028 1 1 0.01 0.25
6:28 pm 18:28 Cloudy with Light Snow 32 0 30 -1 93 93 ESE 15 24 30.37 1028 1 2 0.01 0.25
6:56 pm 18:56 Cloudy with Light Snow 32 0 30 -1.1 92 92 E 13 20 30.35 1028 1 2 0.03 0.76
7:09 pm 19:09 Cloudy with Light Snow 32 0 30 -1 93 93 ESE 15 24 30.38 1029 2 2 0.00 0.00
7:56 pm 19:56 Cloudy with Light Snow 31 -0.6 30 -1.1 96 96 ESE 15 24 30.34 1027 1 2 0.01 0.25
8:10 pm 20:10 Windy with Snow Likely 30 -1 30 -1 100 100 ESE 20 31 30.38 1029 3 5 0.00 0.00
8:20 pm 20:20 Cloudy with Light Snow 30 -1 30 -1 100 100 ESE 18 30 30.38 1029 3 4 0.00 0.00
8:38 pm 20:38 Windy with Snow Likely 30 -1 30 -1 100 100 ESE 20 31 30.39 1029 3 5 0.01 0.25
8:47 pm 20:47 Windy with Snow Likely 30 -1 30 -1 100 100 ESE 22 35 30.38 1029 3 4 0.00 0.00
8:56 pm 20:56 Windy with Snow Likely 31 -0.6 30 -1.1 96 96 ESE 22 35 30.33 1027 3 5 0.01 0.25
9:05 pm 21:05 Windy with Snow Likely 30 -1 30 -1 100 100 ESE 21 33 30.38 1029 3 5 0.00 0.00
9:30 pm 21:30 Windy with Snow Likely 30 -1 30 -1 100 100 E 21 33 30.38 1029 3 4 0.00 0.00
9:56 pm 21:56 Windy with Snow Likely 31 -0.6 30 -1.1 96 96 E 20 31 30.34 1028 2 3 0.00 0.00
10:12 pm 22:12 Cloudy with Light Snow 30 -1 30 -1 100 100 E 17 28 30.39 1029 2 3 0.00 0.00
10:56 pm 22:56 Cloudy with Light Snow 31 -0.6 30 -1.1 96 96 E 16 26 30.35 1028 2 3 0.00 0.00
11:23 pm 23:23 Cloudy with Light Snow 30 -1 28 -2 93 93 ESE 15 24 30.41 1030 1 2 0.00 0.00
11:44 pm 23:44 Cloudy with Light Snow 30 -1 28 -2 93 93 E 13 20 30.41 1030 1 2 0.02 0.51
11:56 pm 23:56 Cloudy with Light Snow 30 -1.1 29 -1.7 96 96 E 14 22 30.34 1028 2 3 0.02 0.51

Powered by AerisWeather